Location: Tarleton Observatory
(32.2162°N, 98.0976°W)
Time: 04:16:03
(UTC-06:00)

Daily predictions for brighter satellites

Satellite Brightness Start Highest point End
(mag) Time Altitude Azimuth Time Altitude Azimuth Time Altitude Azimuth
Cosmos 2278 Rocket 3.9 04:14:01 29° ESE 04:14:01 29° ESE 04:17:07 10° SE
CZ-3C R/B 4.4 04:08:02 30° SSW 04:14:27 46° SE 05:46:42 10° E
SL-16 R/B 4.0 04:17:22 26° ENE 04:17:22 26° ENE 04:20:06 10° NE
USA 215 3.3 04:35:02 10° NE 04:40:47 71° NNE 04:40:47 71° NNE
CZ-3 R/B 3.8 04:32:35 10° SW 04:51:13 34° S 04:57:08 10° ESE
CENTAUR R/B 3.6 04:58:46 31° N 04:58:46 31° N 05:02:27 10° NNE
Cosmos 2112 Rocket 4.4 04:51:30 10° S 04:56:37 59° ESE 05:01:44 10° NNE
Feng Yun 1-1 Rocket 4.2 04:54:28 10° NNE 05:00:04 78° ESE 05:05:31 10° S
Gbstr 26 Del rocket 4.2 05:08:43 35° NNE 05:08:54 35° NE 05:12:46 10° ESE
DASH 3.3 05:17:00 37° SSE 05:17:00 37° SSE 05:21:23 10° E
Thor Agena Rocket 3.3 05:15:05 10° S 05:20:06 71° WSW 05:20:20 69° W
Meteor 1-20 Rocket 4.4 05:17:44 10° S 05:23:20 73° E 05:28:51 10° NNE
Lacrosse 5 3.0 05:24:53 10° SSW 05:29:42 44° ESE 05:34:32 10° NE
COSMO-SKYMED 1 3.8 05:27:09 10° SE 05:31:12 41° ENE 05:35:17 10° N
Meteor 1-14 Rocket 4.4 05:29:43 10° SSW 05:35:10 46° W 05:40:32 10° N
Cosmos 921 Rocket 4.2 05:31:59 11° N 05:36:07 43° ENE 05:40:25 10° SE
Cosmos 2297 3.6 05:36:46 29° NNW 05:39:44 74° WSW 05:45:22 10° SSE
Centaur AC-116 4.3 05:38:50 27° WSW 05:40:10 31° SSW 05:42:51 10° SE
SJ-6F 4.2 05:36:25 10° N 05:40:27 69° WNW 05:44:30 10° SSW
DELTA 2 R/B (1) 3.5 05:42:22 38° WNW 05:44:33 88° NNE 05:50:08 10° ESE
Cosmos 2327 Rocket 4.4 05:39:20 10° S 05:45:44 75° W 05:52:05 10° N
Cosmos 44 Rocket 4.1 05:43:27 10° S 05:48:30 56° ESE 05:53:32 10° NE
Okean 1 3.6 05:45:33 10° N 05:49:36 70° E 05:53:36 10° SSE
Celestis-02/Orion 38 4.5 05:45:45 10° SSE 05:50:51 73° WSW 05:54:48 18° NNW
Cosmos 2074 Rocket 4.0 05:48:31 10° SSW 05:54:41 59° W 06:00:52 10° N
Cosmos 2278 Rocket 3.4 05:55:57 22° WSW 05:55:57 22° WSW 05:59:47 10° SSW
USA 32 3.9 05:51:21 10° N 05:56:32 69° W 06:01:43 10° S
Cosmos 1300 Rocket 3.6 05:52:48 10° S 05:57:14 81° E 06:01:40 10° N
SL-16 R/B 3.2 05:59:25 24° NW 05:59:25 24° NW 06:03:37 10° N
Cosmos 1602 4.1 05:56:28 10° S 06:00:22 68° E 06:04:18 10° NNE
SKYMED 3 4.5 05:56:49 10° S 06:01:09 84° WSW 06:05:30 10° NNW
CRYOSAT 2 4.3 05:56:19 10° S 06:01:10 75° W 06:06:04 10° N
Cosmos 1371 Rocket 4.4 05:56:59 10° N 06:02:16 66° ENE 06:07:27 10° SSE
Ariane Rocket 2.9 05:58:20 10° NNE 06:03:24 85° WNW 06:08:28 10° SSW
ATLAS CENTAUR Rocket 3.0 05:55:55 17° W 06:04:14 62° S 06:08:18 10° ESE
Cosmos 1812 3.0 06:03:42 21° NNW 06:05:51 43° W 06:09:31 10° SSW
GPS 2-05 Rocket1 3.4 06:05:47 30° NW 06:07:10 48° N 06:10:41 10° E
Iridium 2 4.4 06:04:08 10° SSW 06:07:33 32° W 06:10:21 14° NNW
Cosmos 2184 Rocket 4.2 06:02:38 10° SSW 06:08:29 46° W 06:14:24 10° N
Cosmos 1346 Rocket 2.6 06:05:11 10° N 06:09:06 82° W 06:13:01 10° S
CZ-4 R/B 2.7 06:14:14 10° NNE 06:18:00 43° E 06:21:42 10° S
SKYMED 2 3.8 06:15:02 10° S 06:19:13 49° W 06:23:25 10° NNW
Cosmos 2154 Rocket 3.9 06:17:32 10° SSW 06:23:44 72° W 06:29:57 10° N
USA 215 4.3 06:18:59 10° NNE 06:23:56 24° NNW 06:28:10 13° WNW
SL-24 R/B 4.4 06:18:44 10° N 06:24:07 65° WNW 06:28:40 10° SSW
Meteor 1-28 Rocket 3.1 06:23:27 10° S 06:27:13 75° W 06:31:01 10° NNW
Meteor 2-13 Rocket 4.4 06:22:55 10° SSW 06:29:01 68° W 06:35:10 10° N
Cosmos 1536 2.7 06:25:21 10° S 06:29:19 87° W 06:33:19 10° N
Cosmos 1633 2.7 06:25:54 10° SSW 06:29:27 50° W 06:33:00 10° N
Abrixas rocket 2.6 06:31:15 10° WSW 06:34:28 43° NW 06:37:42 10° NE
Tiangong 2 3.5 06:38:33 10° NNW 06:39:53 12° N 06:41:14 10° NNE
IRS-1A Rocket 4.3 06:34:25 10° N 06:40:07 75° WNW 06:45:55 10° SSW
Helios 1B rocket 3.7 06:39:39 10° SE 06:43:35 43° ENE 06:47:31 10° N
Meteor 2-4 Rocket 3.9 06:39:05 10° N 06:44:37 78° E 06:50:17 10° S
OAO 3 Copernicus 4.5 06:39:37 10° W 06:44:40 63° N 06:49:42 10° E
IUS-13 SRM-1 3.9 06:49:23 10° SSW 06:50:24 13° SSE 06:51:29 10° SE
Meteor 1-5 Rocket 4.2 06:45:27 10° S 06:50:53 84° E 06:56:14 10° N
AQUARIUS 4.3 06:46:48 10° NNE 06:51:19 86° ESE 06:55:47 10° SSW
Cosmos 1340 4.4 06:48:30 10° NNE 06:51:59 34° E 06:55:27 10° SE
CZ-2C R/B 2.6 06:47:13 10° NNE 06:52:25 87° ESE 06:57:27 10° SSW
CSL-04 Rocket 4.3 06:49:01 10° N 06:54:00 36° WNW 06:58:57 10° SW
Gbstr 26 Del rocket 4.2 06:52:02 10° WNW 06:55:36 24° SW 06:58:47 10° S
YAOGAN 1 2.6 06:51:24 10° NNE 06:55:45 89° ESE 07:00:03 10° SSW
